| time (UTC) | temp F | wind direction | speed MPH | gust MPH | rain 1hr in | rain 24hr in | rain mn in | humidity % | barometer mb |
| 20260508204538 | 50 | 302 | 0.0 | 0.0 | 0.00 | 0.00 | 0.00 | 93 | 1030.0 |
| 20260508204533 | 50 | 302 | 0.0 | 0.0 | 0.00 | 0.00 | 0.00 | 93 | 1030.1 |
| 20260508203235 | 50 | 302 | 0.0 | 0.0 | 0.00 | 0.00 | 0.00 | 93 | 1029.9 |
| 20260508202735 | 50 | 302 | 0.0 | 0.0 | 0.00 | 0.00 | 0.00 | 93 | 1029.8 |
| 20260508202233 | 51 | 302 | 0.0 | 0.0 | 0.00 | 0.00 | 0.00 | 93 | 1029.8 |
| 20260508201734 | 51 | 302 | 0.0 | 0.0 | 0.00 | 0.00 | 0.00 | 92 | 1029.8 |
| 20260508201236 | 51 | 302 | 0.0 | 0.0 | 0.00 | 0.00 | 0.00 | 92 | 1029.8 |
| 20260508201020 | 51 | 302 | 0.0 | 0.0 | 0.00 | 0.00 | 0.00 | 92 | 1029.8 |
| 20260508200234 | 51 | 302 | 0.0 | 0.0 | 0.00 | 0.00 | 0.00 | 92 | 1029.8 |
| 20260508195733 | 51 | 302 | 0.0 | 0.0 | 0.00 | 0.00 | 0.00 | 92 | 1029.8 |
| 20260508195235 | 51 | 302 | 0.0 | 0.0 | 0.00 | 0.00 | 0.00 | 92 | 1029.7 |
| 20260508194734 | 51 | 302 | 0.0 | 0.0 | 0.00 | 0.00 | 0.00 | 91 | 1029.7 |
| 20260508194235 | 51 | 302 | 0.0 | 0.0 | 0.00 | 0.00 | 0.00 | 91 | 1029.6 |
| 20260508193734 | 51 | 302 | 0.0 | 0.0 | 0.00 | 0.00 | 0.00 | 91 | 1029.6 |
| 20260508193234 | 51 | 302 | 0.0 | 1.0 | 0.00 | 0.00 | 0.00 | 91 | 1029.6 |
| 20260508192738 | 51 | 302 | 0.0 | 1.0 | 0.00 | 0.00 | 0.00 | 91 | 1029.7 |
| 20260508192233 | 51 | 302 | 0.0 | 0.0 | 0.00 | 0.00 | 0.00 | 91 | 1029.7 |
| 20260508192019 | 51 | 302 | 0.0 | 0.0 | 0.00 | 0.00 | 0.00 | 91 | 1029.6 |
| 20260508191235 | 51 | 302 | 0.0 | 0.0 | 0.00 | 0.00 | 0.00 | 91 | 1029.6 |
| 20260508190732 | 51 | 302 | 0.0 | 0.0 | 0.00 | 0.00 | 0.00 | 91 | 1029.6 |
| 20260508190233 | 51 | 302 | 0.0 | 0.0 | 0.00 | 0.00 | 0.00 | 90 | 1029.5 |
| 20260508185733 | 51 | 305 | 0.0 | 1.0 | 0.00 | 0.00 | 0.00 | 91 | 1029.5 |
| 20260508185515 | 51 | 305 | 0.0 | 1.0 | 0.00 | 0.00 | 0.00 | 91 | 1029.5 |
| 20260508185016 | 51 | 292 | 0.0 | 0.0 | 0.00 | 0.00 | 0.00 | 90 | 1029.5 |
| 20260508184234 | 51 | 292 | 0.0 | 1.0 | 0.00 | 0.00 | 0.00 | 91 | 1029.5 |
| 20260508183733 | 51 | 298 | 0.0 | 1.0 | 0.00 | 0.00 | 0.00 | 90 | 1029.5 |
| 20260508183233 | 51 | 328 | 0.0 | 0.0 | 0.00 | 0.00 | 0.00 | 91 | 1029.5 |
| 20260508182732 | 51 | 328 | 0.0 | 0.0 | 0.00 | 0.00 | 0.00 | 91 | 1029.5 |
| 20260508182232 | 51 | 328 | 0.0 | 0.0 | 0.00 | 0.00 | 0.00 | 91 | 1029.5 |
| 20260508181732 | 51 | 328 | 0.0 | 0.0 | 0.00 | 0.00 | 0.00 | 90 | 1029.5 |
| 20260508181236 | 51 | 328 | 0.0 | 0.0 | 0.00 | 0.00 | 0.00 | 90 | 1029.6 |
| 20260508180733 | 51 | 328 | 0.0 | 0.0 | 0.00 | 0.00 | 0.00 | 90 | 1029.6 |
| 20260508180233 | 51 | 328 | 0.0 | 0.0 | 0.00 | 0.00 | 0.00 | 90 | 1029.6 |
| 20260508175737 | 51 | 328 | 0.0 | 0.0 | 0.00 | 0.00 | 0.00 | 90 | 1029.7 |
| 20260508175236 | 51 | 328 | 0.0 | 0.0 | 0.00 | 0.00 | 0.00 | 90 | 1029.6 |
| 20260508174737 | 51 | 328 | 0.0 | 0.0 | 0.00 | 0.00 | 0.00 | 90 | 1029.6 |
| 20260508174235 | 51 | 328 | 0.0 | 0.0 | 0.00 | 0.00 | 0.00 | 90 | 1029.6 |
| 20260508173735 | 51 | 328 | 0.0 | 0.0 | 0.00 | 0.00 | 0.00 | 90 | 1029.6 |
| 20260508173236 | 51 | 328 | 0.0 | 0.0 | 0.00 | 0.00 | 0.00 | 90 | 1029.7 |
| 20260508172734 | 51 | 328 | 0.0 | 0.0 | 0.00 | 0.00 | 0.00 | 90 | 1029.7 |
| 20260508172513 | 51 | 328 | 0.0 | 0.0 | 0.00 | 0.00 | 0.00 | 90 | 1029.7 |
| 20260508171735 | 51 | 328 | 0.0 | 0.0 | 0.00 | 0.00 | 0.00 | 90 | 1029.8 |
| 20260508171514 | 51 | 328 | 0.0 | 0.0 | 0.00 | 0.00 | 0.00 | 90 | 1029.8 |
| 20260508171023 | 51 | 328 | 0.0 | 0.0 | 0.00 | 0.00 | 0.00 | 90 | 1029.8 |
| 20260508170518 | 51 | 328 | 0.0 | 0.0 | 0.00 | 0.00 | 0.00 | 90 | 1029.8 |
| 20260508165810 | 51 | 328 | 0.0 | 0.0 | 0.00 | 0.00 | 0.00 | 90 | 1029.9 |
| 20260508165754 | 51 | 328 | 0.0 | 0.0 | 0.00 | 0.00 | 0.00 | 90 | 1029.8 |
| 20260508164735 | 51 | 328 | 0.0 | 0.0 | 0.00 | 0.00 | 0.00 | 90 | 1029.9 |
| 20260508164237 | 51 | 328 | 0.0 | 0.0 | 0.00 | 0.00 | 0.00 | 90 | 1030.0 |
| 20260508163734 | 51 | 328 | 0.0 | 0.0 | 0.00 | 0.00 | 0.00 | 91 | 1030.0 |
| 20260508163240 | 51 | 328 | 0.0 | 0.0 | 0.00 | 0.00 | 0.00 | 91 | 1030.0 |
| 20260508162737 | 51 | 328 | 0.0 | 0.0 | 0.00 | 0.00 | 0.00 | 91 | 1030.0 |
| 20260508162235 | 51 | 328 | 0.0 | 0.0 | 0.00 | 0.00 | 0.00 | 91 | 1030.1 |
| 20260508161736 | 51 | 328 | 0.0 | 1.0 | 0.00 | 0.00 | 0.00 | 91 | 1030.1 |
| 20260508161538 | 51 | 330 | 0.0 | 0.0 | 0.00 | 0.00 | 0.00 | 91 | 1030.1 |
| 20260508161533 | 51 | 328 | 0.0 | 1.0 | 0.00 | 0.00 | 0.00 | 91 | 1030.0 |
| 20260508160234 | 51 | 330 | 0.0 | 0.0 | 0.00 | 0.00 | 0.00 | 91 | 1030.0 |
| 20260508155735 | 51 | 330 | 0.0 | 0.0 | 0.00 | 0.00 | 0.00 | 91 | 1030.0 |
| 20260508155512 | 51 | 330 | 0.0 | 0.0 | 0.00 | 0.00 | 0.00 | 91 | 1030.0 |
| 20260508154734 | 51 | 330 | 0.0 | 0.0 | 0.00 | 0.00 | 0.00 | 91 | 1030.0 |
| 20260508154512 | 51 | 330 | 0.0 | 1.0 | 0.00 | 0.00 | 0.00 | 91 | 1030.1 |
| 20260508153733 | 51 | 330 | 0.0 | 1.0 | 0.00 | 0.00 | 0.00 | 91 | 1030.1 |
| 20260508153234 | 51 | 257 | 0.0 | 0.0 | 0.00 | 0.00 | 0.00 | 91 | 1030.2 |
| 20260508152735 | 51 | 257 | 0.0 | 0.0 | 0.00 | 0.00 | 0.00 | 91 | 1030.2 |
| 20260508152236 | 51 | 257 | 0.0 | 0.0 | 0.00 | 0.00 | 0.00 | 91 | 1030.2 |
| 20260508151733 | 51 | 257 | 0.0 | 0.0 | 0.00 | 0.00 | 0.00 | 91 | 1030.3 |
| 20260508151208 | 51 | 18 | 0.0 | 0.0 | 0.00 | 0.00 | 0.00 | 91 | 1030.3 |
| 20260508150708 | 51 | 18 | 0.0 | 0.0 | 0.00 | 0.00 | 0.00 | 91 | 1030.3 |
| 20260508150208 | 0 | 0.0 | 0.0 | 0.00 | 0.00 | 0.00 | |||
| 20260508145944 | 0 | 0.0 | 0.0 | 0.00 | 0.00 | 0.00 | |||
| 20260508145209 | 0 | 0.0 | 0.0 | 0.00 | 0.00 | 0.00 | |||
| 20260508145009 | 0 | 0.0 | 0.0 | 0.00 | 0.00 | 0.00 | |||
| 20260508144920 | 51 | 18 | 0.0 | 0.0 | 0.00 | 0.00 | 0.00 | 92 | 1030.1 |
| 20260508143209 | 51 | 18 | 0.0 | 0.0 | 0.00 | 0.00 | 0.00 | 92 | 1030.0 |
| 20260508142745 | 51 | 18 | 0.0 | 0.0 | 0.00 | 0.00 | 0.00 | 93 | 1030.1 |
| 20260508142730 | 51 | 18 | 0.0 | 0.0 | 0.00 | 0.00 | 0.00 | 92 | 1030.1 |
| 20260508141721 | 51 | 18 | 0.0 | 0.0 | 0.00 | 0.00 | 0.00 | 93 | 1030.2 |
| 20260508141238 | 50 | 18 | 0.0 | 0.0 | 0.00 | 0.00 | 0.00 | 93 | 1030.2 |
| 20260508140446 | 50 | 18 | 0.0 | 0.0 | 0.00 | 0.00 | 0.00 | 93 | 1030.2 |
| 20260508135707 | 50 | 18 | 0.0 | 0.0 | 0.00 | 0.00 | 0.00 | 93 | 1030.2 |
| 20260508135208 | 49 | 18 | 0.0 | 0.0 | 0.00 | 0.00 | 0.00 | 93 | 1030.3 |
| 20260508134710 | 49 | 18 | 0.0 | 0.0 | 0.00 | 0.00 | 0.00 | 93 | 1030.4 |
| 20260508134208 | 49 | 18 | 0.0 | 0.0 | 0.00 | 0.00 | 0.00 | 92 | 1030.4 |
| 20260508133709 | 49 | 18 | 0.0 | 0.0 | 0.00 | 0.00 | 0.00 | 92 | 1030.5 |
| 20260508133208 | 50 | 18 | 0.0 | 0.0 | 0.00 | 0.00 | 0.00 | 92 | 1030.4 |
| 20260508132709 | 50 | 18 | 0.0 | 0.0 | 0.00 | 0.00 | 0.00 | 92 | 1030.5 |
| 20260508132208 | 50 | 18 | 0.0 | 0.0 | 0.00 | 0.00 | 0.00 | 92 | 1030.5 |
| 20260508131706 | 51 | 18 | 0.0 | 0.0 | 0.00 | 0.00 | 0.00 | 92 | 1030.6 |
| 20260508131207 | 51 | 18 | 0.0 | 0.0 | 0.00 | 0.00 | 0.00 | 91 | 1030.6 |
| 20260508130708 | 51 | 18 | 0.0 | 0.0 | 0.00 | 0.00 | 0.00 | 92 | 1030.7 |
| 20260508130210 | 51 | 18 | 0.0 | 0.0 | 0.00 | 0.00 | 0.00 | 91 | 1030.7 |
| 20260508125956 | 51 | 18 | 0.0 | 0.0 | 0.00 | 0.00 | 0.00 | 91 | 1030.7 |
| 20260508125227 | 51 | 18 | 0.0 | 0.0 | 0.00 | 0.00 | 0.00 | 91 | 1030.7 |
| 20260508124215 | 52 | 18 | 0.0 | 1.0 | 0.00 | 0.00 | 0.00 | 91 | 1030.7 |
| 20260508123722 | 52 | 18 | 0.0 | 1.0 | 0.00 | 0.00 | 0.00 | 91 | 1030.7 |
| 20260508123209 | 52 | 279 | 0.0 | 0.0 | 0.00 | 0.00 | 0.00 | 92 | 1030.8 |
| 20260508122708 | 52 | 279 | 0.0 | 0.0 | 0.00 | 0.00 | 0.00 | 92 | 1030.9 |
| 20260508122207 | 51 | 279 | 0.0 | 1.0 | 0.00 | 0.00 | 0.00 | 93 | 1030.9 |
| 20260508121706 | 51 | 279 | 0.0 | 1.0 | 0.00 | 0.00 | 0.00 | 93 | 1031.0 |
| 20260508121208 | 52 | 345 | 0.0 | 1.0 | 0.00 | 0.00 | 0.00 | 93 | 1031.0 |
| 20260508120708 | 52 | 42 | 0.0 | 0.0 | 0.00 | 0.00 | 0.00 | 94 | 1031.0 |
| 20260508120443 | 52 | 42 | 0.0 | 0.0 | 0.00 | 0.00 | 0.00 | 94 | 1030.9 |
| 20260508115707 | 52 | 42 | 0.0 | 0.0 | 0.00 | 0.00 | 0.00 | 94 | 1030.9 |
| 20260508115207 | 52 | 42 | 0.0 | 0.0 | 0.00 | 0.00 | 0.00 | 94 | 1030.9 |
| 20260508114707 | 52 | 42 | 0.0 | 0.0 | 0.00 | 0.00 | 0.00 | 94 | 1030.9 |
| 20260508114208 | 52 | 42 | 0.0 | 0.0 | 0.00 | 0.00 | 0.00 | 94 | 1030.9 |
| 20260508113949 | 52 | 42 | 0.0 | 0.0 | 0.00 | 0.00 | 0.00 | 94 | 1030.9 |
| 20260508113206 | 52 | 42 | 0.0 | 0.0 | 0.00 | 0.00 | 0.00 | 94 | 1030.9 |
| 20260508112707 | 52 | 42 | 0.0 | 0.0 | 0.00 | 0.00 | 0.00 | 94 | 1030.9 |
| 20260508112207 | 52 | 42 | 0.0 | 0.0 | 0.00 | 0.00 | 0.00 | 94 | 1030.8 |
| 20260508111949 | 52 | 42 | 0.0 | 0.0 | 0.00 | 0.00 | 0.00 | 93 | 1030.8 |
| 20260508111206 | 52 | 42 | 0.0 | 0.0 | 0.00 | 0.00 | 0.00 | 93 | 1030.8 |
| 20260508110951 | 52 | 42 | 0.0 | 0.0 | 0.00 | 0.00 | 0.00 | 93 | 1030.8 |
| 20260508110227 | 52 | 42 | 0.0 | 0.0 | 0.00 | 0.00 | 0.00 | 93 | 1030.8 |
| 20260508110218 | 52 | 42 | 0.0 | 0.0 | 0.00 | 0.00 | 0.00 | 93 | 1030.8 |
| 20260508105206 | 52 | 42 | 0.0 | 0.0 | 0.00 | 0.00 | 0.00 | 93 | 1030.8 |
| 20260508104707 | 52 | 42 | 0.0 | 0.0 | 0.00 | 0.00 | 0.00 | 93 | 1030.8 |
| 20260508104207 | 53 | 42 | 0.0 | 1.0 | 0.00 | 0.00 | 0.00 | 93 | 1030.7 |
| 20260508103746 | 53 | 42 | 0.0 | 1.0 | 0.00 | 0.00 | 0.00 | 93 | 1030.7 |
| 20260508102944 | 53 | 229 | 0.0 | 0.0 | 0.00 | 0.00 | 0.00 | 93 | 1030.7 |
| 20260508102207 | 53 | 229 | 0.0 | 0.0 | 0.00 | 0.00 | 0.00 | 92 | 1030.7 |
| 20260508101719 | 53 | 229 | 0.0 | 0.0 | 0.00 | 0.00 | 0.00 | 92 | 1030.7 |
| 20260508101443 | 53 | 229 | 0.0 | 0.0 | 0.00 | 0.00 | 0.00 | 92 | 1030.6 |
| 20260508100707 | 53 | 229 | 0.0 | 0.0 | 0.00 | 0.00 | 0.00 | 92 | 1030.6 |
| 20260508100206 | 53 | 229 | 0.0 | 0.0 | 0.00 | 0.00 | 0.00 | 92 | 1030.7 |
| 20260508095706 | 53 | 229 | 0.0 | 0.0 | 0.00 | 0.00 | 0.00 | 92 | 1030.7 |
| 20260508095207 | 53 | 229 | 0.0 | 0.0 | 0.00 | 0.00 | 0.00 | 92 | 1030.7 |
| 20260508094707 | 53 | 229 | 0.0 | 0.0 | 0.00 | 0.00 | 0.00 | 92 | 1030.7 |
| 20260508094133 | 53 | 229 | 0.0 | 0.0 | 0.00 | 0.00 | 0.00 | 92 | 1030.7 |
| 20260508093634 | 53 | 229 | 0.0 | 0.0 | 0.00 | 0.00 | 0.00 | 92 | 1030.6 |
| 20260508093133 | 53 | 229 | 0.0 | 0.0 | 0.00 | 0.00 | 0.00 | 92 | 1030.5 |
| 20260508092633 | 53 | 229 | 0.0 | 1.0 | 0.00 | 0.00 | 0.00 | 92 | 1030.5 |
| 20260508092134 | 53 | 229 | 0.0 | 1.0 | 0.00 | 0.00 | 0.00 | 92 | 1030.5 |
| 20260508091633 | 53 | 355 | 0.0 | 0.0 | 0.00 | 0.00 | 0.00 | 92 | 1030.5 |
| 20260508091134 | 53 | 355 | 0.0 | 0.0 | 0.00 | 0.00 | 0.00 | 92 | 1030.4 |
| 20260508090633 | 53 | 355 | 0.0 | 0.0 | 0.00 | 0.00 | 0.00 | 92 | 1030.3 |
| 20260508090133 | 53 | 355 | 0.0 | 0.0 | 0.00 | 0.00 | 0.00 | 92 | 1030.3 |
| 20260508085633 | 53 | 355 | 0.0 | 1.0 | 0.00 | 0.00 | 0.00 | 92 | 1030.2 |
| 20260508085133 | 53 | 355 | 0.0 | 1.0 | 0.00 | 0.00 | 0.00 | 92 | 1030.2 |
| 20260508084640 | 53 | 340 | 0.0 | 0.0 | 0.00 | 0.00 | 0.00 | 92 | 1030.2 |
| 20260508084132 | 53 | 340 | 0.0 | 0.0 | 0.00 | 0.00 | 0.00 | 92 | 1030.2 |
| 20260508083913 | 53 | 340 | 0.0 | 0.0 | 0.00 | 0.00 | 0.00 | 92 | 1030.2 |
| 20260508083135 | 53 | 340 | 0.0 | 0.0 | 0.00 | 0.00 | 0.00 | 91 | 1029.9 |
| 20260508082634 | 53 | 340 | 0.0 | 0.0 | 0.00 | 0.00 | 0.00 | 91 | 1029.9 |
| 20260508082417 | 53 | 340 | 0.0 | 0.0 | 0.00 | 0.00 | 0.00 | 91 | 1029.9 |
| 20260508081633 | 53 | 340 | 0.0 | 1.0 | 0.00 | 0.00 | 0.00 | 91 | 1029.9 |
| 20260508081133 | 53 | 340 | 0.0 | 1.0 | 0.00 | 0.00 | 0.00 | 91 | 1029.9 |
| 20260508080634 | 53 | 42 | 0.0 | 0.0 | 0.00 | 0.00 | 0.00 | 91 | 1029.9 |
| 20260508080420 | 53 | 42 | 0.0 | 0.0 | 0.00 | 0.00 | 0.00 | 90 | 1029.9 |
| 20260508075922 | 54 | 42 | 0.0 | 0.0 | 0.00 | 0.00 | 0.00 | 89 | 1030.0 |
| 20260508075134 | 54 | 42 | 0.0 | 1.0 | 0.00 | 0.00 | 0.00 | 89 | 1030.1 |
| 20260508074633 | 55 | 42 | 0.0 | 1.0 | 0.00 | 0.00 | 0.00 | 88 | 1030.1 |
| 20260508074135 | 55 | 105 | 0.0 | 1.0 | 0.00 | 0.00 | 0.00 | 87 | 1029.9 |
| 20260508073919 | 55 | 300 | 0.0 | 1.0 | 0.00 | 0.00 | 0.00 | 87 | 1029.8 |
| 20260508073134 | 55 | 130 | 0.0 | 0.0 | 0.00 | 0.00 | 0.00 | 87 | 1029.8 |
| 20260508072633 | 55 | 130 | 0.0 | 0.0 | 0.00 | 0.00 | 0.00 | 87 | 1029.8 |
| 20260508072134 | 55 | 130 | 0.0 | 0.0 | 0.00 | 0.00 | 0.00 | 87 | 1029.9 |
| 20260508071923 | 55 | 181 | 0.0 | 0.0 | 0.00 | 0.00 | 0.00 | 87 | 1029.9 |
| 20260508071421 | 55 | 181 | 0.0 | 0.0 | 0.00 | 0.00 | 0.00 | 87 | 1030.0 |
| 20260508070632 | 55 | 181 | 0.0 | 0.0 | 0.00 | 0.00 | 0.00 | 87 | 1029.9 |
| 20260508070133 | 55 | 181 | 0.0 | 0.0 | 0.00 | 0.00 | 0.00 | 87 | 1029.9 |
| 20260508065637 | 55 | 181 | 0.0 | 0.0 | 0.00 | 0.00 | 0.00 | 87 | 1029.9 |
| 20260508065136 | 55 | 181 | 0.0 | 0.0 | 0.00 | 0.00 | 0.00 | 87 | 1029.9 |
| 20260508064710 | 55 | 181 | 0.0 | 0.0 | 0.00 | 0.00 | 0.00 | 87 | 1029.9 |
| 20260508064653 | 55 | 181 | 0.0 | 0.0 | 0.00 | 0.00 | 0.00 | 87 | 1030.0 |
| 20260508063636 | 55 | 181 | 0.0 | 0.0 | 0.00 | 0.00 | 0.00 | 88 | 1029.9 |
| 20260508063135 | 55 | 181 | 0.0 | 0.0 | 0.00 | 0.00 | 0.00 | 88 | 1029.9 |
| 20260508062635 | 55 | 181 | 0.0 | 0.0 | 0.00 | 0.00 | 0.00 | 87 | 1030.1 |
| 20260508062417 | 55 | 181 | 0.0 | 0.0 | 0.00 | 0.00 | 0.00 | 87 | 1030.1 |
| 20260508061637 | 55 | 181 | 0.0 | 0.0 | 0.00 | 0.00 | 0.00 | 87 | 1030.1 |
| 20260508061137 | 56 | 181 | 0.0 | 1.0 | 0.00 | 0.00 | 0.00 | 87 | 1030.1 |
| 20260508060635 | 55 | 181 | 0.0 | 1.0 | 0.00 | 0.00 | 0.00 | 88 | 1030.2 |
| 20260508060134 | 55 | 120 | 0.0 | 1.0 | 0.00 | 0.00 | 0.00 | 88 | 1030.2 |
| 20260508055634 | 55 | 90 | 0.0 | 1.0 | 0.00 | 0.00 | 0.00 | 88 | 1030.3 |
| 20260508055138 | 55 | 167 | 0.0 | 1.0 | 0.00 | 0.00 | 0.00 | 86 | 1030.3 |
| 20260508054634 | 56 | 333 | 0.0 | 0.0 | 0.00 | 0.00 | 0.00 | 85 | 1030.2 |
| 20260508054142 | 55 | 333 | 0.0 | 0.0 | 0.00 | 0.00 | 0.00 | 85 | 1030.3 |
| 20260508053632 | 56 | 53 | 0.0 | 0.0 | 0.00 | 0.00 | 0.00 | 85 | 1030.1 |
| 20260508053232 | 55 | 321 | 0.0 | 0.0 | 0.00 | 0.00 | 0.00 | 87 | 1030.3 |
| 20260508052734 | 55 | 321 | 0.0 | 0.0 | 0.00 | 0.00 | 0.00 | 87 | 1030.3 |
| 20260508052233 | 55 | 296 | 0.0 | 0.0 | 0.00 | 0.00 | 0.00 | 85 | 1030.4 |
| 20260508052221 | 0 | 0.0 | 0.0 | 0.00 | 0.00 | 0.00 | |||
| 20260508051246 | 55 | 114 | 0.0 | 0.0 | 0.00 | 0.00 | 0.00 | 85 | 1030.4 |
| 20260508050720 | 55 | 114 | 0.0 | 0.0 | 0.00 | 0.00 | 0.00 | 85 | 1030.4 |
| 20260508050208 | 55 | 114 | 0.0 | 0.0 | 0.00 | 0.00 | 0.00 | 85 | 1030.4 |
| 20260508045709 | 55 | 114 | 0.0 | 0.0 | 0.00 | 0.00 | 0.00 | 85 | 1030.5 |
| 20260508045445 | 55 | 114 | 0.0 | 1.0 | 0.00 | 0.00 | 0.00 | 86 | 1030.4 |
| 20260508044946 | 55 | 114 | 0.0 | 1.0 | 0.00 | 0.00 | 0.00 | 86 | 1030.4 |
| 20260508044207 | 55 | 113 | 0.0 | 1.0 | 0.00 | 0.00 | 0.00 | 85 | 1030.4 |
| 20260508043708 | 55 | 312 | 0.0 | 2.0 | 0.00 | 0.00 | 0.00 | 84 | 1030.4 |
| 20260508043454 | 55 | 329 | 0.0 | 2.0 | 0.00 | 0.00 | 0.00 | 84 | 1030.5 |
| 20260508042708 | 56 | 140 | 0.0 | 0.0 | 0.00 | 0.00 | 0.00 | 85 | 1030.4 |
| 20260508042209 | 55 | 140 | 0.0 | 1.0 | 0.00 | 0.00 | 0.00 | 85 | 1030.4 |
| 20260508041707 | 55 | 140 | 0.0 | 1.0 | 0.00 | 0.00 | 0.00 | 84 | 1030.5 |
| 20260508041209 | 56 | 341 | 0.0 | 1.0 | 0.00 | 0.00 | 0.00 | 83 | 1030.5 |
| 20260508040957 | 56 | 111 | 0.0 | 1.0 | 0.00 | 0.00 | 0.00 | 83 | 1030.6 |
| 20260508040208 | 56 | 345 | 0.0 | 0.0 | 0.00 | 0.00 | 0.00 | 82 | 1030.6 |
| 20260508035707 | 55 | 345 | 0.0 | 0.0 | 0.00 | 0.00 | 0.00 | 83 | 1030.6 |
| 20260508035213 | 55 | 345 | 0.0 | 1.0 | 0.00 | 0.00 | 0.00 | 83 | 1030.6 |
| 20260508034710 | 55 | 345 | 0.0 | 1.0 | 0.00 | 0.00 | 0.00 | 84 | 1030.7 |
| 20260508034205 | 55 | 86 | 0.0 | 0.0 | 0.00 | 0.00 | 0.00 | 85 | 1030.8 |
| 20260508033706 | 54 | 86 | 0.0 | 1.0 | 0.00 | 0.00 | 0.00 | 85 | 1030.8 |
| 20260508033207 | 55 | 86 | 0.0 | 1.0 | 0.00 | 0.00 | 0.00 | 85 | 1030.8 |
| 20260508032708 | 54 | 300 | 0.0 | 1.0 | 0.00 | 0.00 | 0.00 | 85 | 1030.9 |
| 20260508032207 | 54 | 0 | 0.0 | 0.0 | 0.00 | 0.00 | 0.00 | 87 | 1030.9 |
| 20260508031743 | 54 | 0 | 0.0 | 1.0 | 0.00 | 0.00 | 0.00 | 87 | 1031.2 |
| 20260508031724 | 54 | 0 | 0.0 | 0.0 | 0.00 | 0.00 | 0.00 | 88 | 1031.0 |
| 20260508030707 | 54 | 236 | 0.0 | 1.0 | 0.00 | 0.00 | 0.00 | 85 | 1031.2 |
| 20260508030206 | 55 | 105 | 0.0 | 1.0 | 0.00 | 0.00 | 0.00 | 83 | 1031.2 |
| 20260508025948 | 55 | 336 | 0.0 | 1.0 | 0.00 | 0.00 | 0.00 | 82 | 1031.3 |
| 20260508025455 | 55 | 165 | 0.0 | 0.0 | 0.00 | 0.00 | 0.00 | 82 | 1031.4 |
| 20260508024705 | 55 | 165 | 0.0 | 0.0 | 0.00 | 0.00 | 0.00 | 82 | 1031.5 |
| 20260508024449 | 55 | 165 | 0.0 | 0.0 | 0.00 | 0.00 | 0.00 | 82 | 1031.6 |
| 20260508023706 | 55 | 322 | 0.0 | 1.0 | 0.00 | 0.00 | 0.00 | 81 | 1031.7 |
| 20260508023452 | 55 | 255 | 0.0 | 1.0 | 0.00 | 0.00 | 0.00 | 81 | 1031.6 |
| 20260508022708 | 55 | 153 | 0.0 | 1.0 | 0.00 | 0.00 | 0.00 | 80 | 1031.7 |
| 20260508022212 | 55 | 319 | 0.0 | 0.0 | 0.00 | 0.00 | 0.00 | 82 | 1031.7 |
| 20260508021707 | 55 | 319 | 0.0 | 0.0 | 0.00 | 0.00 | 0.00 | 81 | 1031.7 |
| 20260508021211 | 55 | 319 | 0.0 | 1.0 | 0.00 | 0.00 | 0.00 | 81 | 1031.7 |
| 20260508020707 | 55 | 319 | 0.0 | 1.0 | 0.00 | 0.00 | 0.00 | 80 | 1031.8 |
| 20260508020208 | 56 | 278 | 0.0 | 0.0 | 0.00 | 0.00 | 0.00 | 80 | 1031.8 |
| 20260508015707 | 56 | 278 | 0.0 | 1.0 | 0.00 | 0.00 | 0.00 | 79 | 1031.8 |
| 20260508015458 | 56 | 127 | 0.0 | 1.0 | 0.00 | 0.00 | 0.00 | 79 | 1031.9 |
| 20260508014706 | 56 | 86 | 0.0 | 1.0 | 0.00 | 0.00 | 0.00 | 80 | 1031.9 |
| 20260508014204 | 56 | 346 | 0.0 | 1.0 | 0.00 | 0.00 | 0.00 | 80 | 1032.0 |
| 20260508013707 | 56 | 259 | 0.0 | 1.0 | 0.00 | 0.00 | 0.00 | 79 | 1032.0 |
| 20260508013206 | 55 | 101 | 0.0 | 1.0 | 0.00 | 0.00 | 0.00 | 80 | 1032.0 |
| 20260508012706 | 55 | 308 | 0.0 | 1.0 | 0.00 | 0.00 | 0.00 | 80 | 1032.1 |
| 20260508012207 | 55 | 232 | 0.0 | 1.0 | 0.00 | 0.00 | 0.00 | 80 | 1032.1 |
| 20260508011706 | 55 | 117 | 1.0 | 2.0 | 0.00 | 0.00 | 0.00 | 81 | 1032.0 |
| 20260508011205 | 55 | 92 | 1.0 | 2.0 | 0.00 | 0.00 | 0.00 | 81 | 1032.0 |
| 20260508010707 | 55 | 0 | 0.0 | 2.0 | 0.00 | 0.00 | 0.00 | 80 | 1031.9 |
| 20260508010453 | 55 | 190 | 0.0 | 1.0 | 0.00 | 0.00 | 0.00 | 81 | 1031.9 |
| 20260508005919 | 54 | 126 | 0.0 | 2.0 | 0.00 | 0.00 | 0.00 | 83 | 1031.9 |
| 20260508005439 | 54 | 290 | 1.0 | 2.0 | 0.00 | 0.00 | 0.00 | 84 | 1031.9 |
| 20260508004919 | 53 | 105 | 0.0 | 2.0 | 0.00 | 0.00 | 0.00 | 83 | 1032.0 |
| 20260508004133 | 53 | 333 | 0.0 | 2.0 | 0.00 | 0.00 | 0.00 | 83 | 1032.1 |
| 20260508003921 | 53 | 299 | 0.0 | 1.0 | 0.00 | 0.00 | 0.00 | 83 | 1032.1 |
| 20260508003416 | 53 | 238 | 0.0 | 1.0 | 0.00 | 0.00 | 0.00 | 83 | 1032.2 |
| 20260508002639 | 53 | 323 | 0.0 | 1.0 | 0.00 | 0.00 | 0.00 | 84 | 1032.1 |
| 20260508002134 | 53 | 323 | 0.0 | 1.0 | 0.00 | 0.00 | 0.00 | 84 | 1032.0 |
| 20260508001636 | 53 | 156 | 0.0 | 1.0 | 0.00 | 0.00 | 0.00 | 84 | 1032.1 |
| 20260508001133 | 53 | 76 | 0.0 | 1.0 | 0.00 | 0.00 | 0.00 | 85 | 1032.1 |
| 20260508000633 | 53 | 236 | 0.0 | 0.0 | 0.00 | 0.00 | 0.00 | 85 | 1032.0 |
| 20260508000133 | 53 | 236 | 0.0 | 0.0 | 0.00 | 0.00 | 0.00 | 85 | 1032.0 |
| 20260507235635 | 52 | 236 | 0.0 | 0.0 | 0.00 | 0.00 | 0.00 | 85 | 1032.1 |
| 20260507235136 | 52 | 295 | 0.0 | 0.0 | 0.00 | 0.00 | 0.00 | 86 | 1032.1 |
| 20260507234632 | 52 | 295 | 0.0 | 0.0 | 0.00 | 0.00 | 0.00 | 86 | 1032.0 |
| 20260507234132 | 52 | 295 | 0.0 | 0.0 | 0.00 | 0.00 | 0.00 | 87 | 1032.0 |
| 20260507233709 | 52 | 236 | 0.0 | 1.0 | 0.00 | 0.00 | 0.00 | 87 | 1031.9 |
| 20260507233652 | 52 | 236 | 0.0 | 1.0 | 0.00 | 0.00 | 0.00 | 87 | 1032.0 |
| 20260507232633 | 52 | 232 | 0.0 | 0.0 | 0.00 | 0.00 | 0.00 | 87 | 1031.8 |
| 20260507232417 | 52 | 232 | 0.0 | 1.0 | 0.00 | 0.00 | 0.00 | 87 | 1031.9 |
| 20260507231634 | 52 | 244 | 0.0 | 1.0 | 0.00 | 0.00 | 0.00 | 87 | 1031.7 |
| 20260507231421 | 52 | 116 | 0.0 | 0.0 | 0.00 | 0.00 | 0.00 | 87 | 1031.8 |
| 20260507230635 | 51 | 116 | 0.0 | 1.0 | 0.00 | 0.00 | 0.00 | 88 | 1031.8 |
| 20260507230133 | 51 | 116 | 0.0 | 1.0 | 0.00 | 0.00 | 0.00 | 88 | 1031.6 |
| 20260507225634 | 51 | 134 | 0.0 | 1.0 | 0.00 | 0.00 | 0.00 | 88 | 1031.6 |
| 20260507225139 | 51 | 134 | 0.0 | 1.0 | 0.00 | 0.00 | 0.00 | 88 | 1031.5 |
| 20260507224634 | 51 | 327 | 0.0 | 0.0 | 0.00 | 0.00 | 0.00 | 88 | 1031.4 |
| 20260507224135 | 51 | 327 | 0.0 | 0.0 | 0.00 | 0.00 | 0.00 | 88 | 1031.4 |
| 20260507223640 | 51 | 327 | 0.0 | 0.0 | 0.00 | 0.00 | 0.00 | 89 | 1031.3 |
| 20260507223132 | 50 | 327 | 0.0 | 0.0 | 0.00 | 0.00 | 0.00 | 90 | 1031.3 |
| 20260507222634 | 50 | 327 | 0.0 | 0.0 | 0.00 | 0.00 | 0.00 | 90 | 1031.3 |
| 20260507222133 | 50 | 327 | 0.0 | 0.0 | 0.00 | 0.00 | 0.00 | 91 | 1031.2 |
| 20260507221633 | 49 | 327 | 0.0 | 0.0 | 0.00 | 0.00 | 0.00 | 91 | 1031.2 |
| 20260507221132 | 49 | 327 | 0.0 | 0.0 | 0.00 | 0.00 | 0.00 | 91 | 1031.3 |
| 20260507220638 | 49 | 327 | 0.0 | 0.0 | 0.00 | 0.00 | 0.00 | 91 | 1031.0 |
| 20260507220137 | 49 | 327 | 0.0 | 0.0 | 0.00 | 0.00 | 0.00 | 91 | 1031.0 |
| 20260507215641 | 49 | 327 | 0.0 | 0.0 | 0.00 | 0.00 | 0.00 | 91 | 1030.9 |
| 20260507215137 | 49 | 327 | 0.0 | 0.0 | 0.00 | 0.00 | 0.00 | 91 | 1030.9 |
| 20260507214634 | 49 | 327 | 0.0 | 0.0 | 0.00 | 0.00 | 0.00 | 91 | 1030.8 |
| 20260507214211 | 49 | 327 | 0.0 | 0.0 | 0.00 | 0.00 | 0.00 | 90 | 1030.8 |
| 20260507214153 | 49 | 327 | 0.0 | 0.0 | 0.00 | 0.00 | 0.00 | 90 | 1030.8 |
| 20260507213421 | 49 | 327 | 0.0 | 0.0 | 0.00 | 0.00 | 0.00 | 90 | 1030.8 |
| 20260507212636 | 49 | 327 | 0.0 | 0.0 | 0.00 | 0.00 | 0.00 | 90 | 1030.6 |
| 20260507212138 | 49 | 327 | 0.0 | 0.0 | 0.00 | 0.00 | 0.00 | 90 | 1030.6 |
| 20260507211637 | 49 | 327 | 0.0 | 0.0 | 0.00 | 0.00 | 0.00 | 90 | 1030.6 |
| 20260507211135 | 49 | 327 | 0.0 | 0.0 | 0.00 | 0.00 | 0.00 | 90 | 1030.6 |
| 20260507210637 | 49 | 327 | 0.0 | 0.0 | 0.00 | 0.00 | 0.00 | 90 | 1030.5 |
| 20260507210238 | 49 | 327 | 0.0 | 0.0 | 0.00 | 0.00 | 0.00 | 90 | 1030.5 |
| 20260507210227 | 49 | 327 | 0.0 | 0.0 | 0.00 | 0.00 | 0.00 | 90 | 1030.5 |
| 20260507210215 | 49 | 327 | 0.0 | 0.0 | 0.00 | 0.00 | 0.00 | 90 | 1030.5 |
| 20260507204637 | 49 | 327 | 0.0 | 0.0 | 0.00 | 0.00 | 0.00 | 90 | 1030.5 |